INMARSAT 3-F4
1 24819U 97027A   03013.17016638 -.00000266  00000-0  10000-3 0  8659
2 24819   0.0686 297.8154 0003903 358.0496 183.5915  1.00271479 20647
FENGYUN 2A
1 24834U 97029A   03008.98957809 -.00000188  00000-0  00000+0 0  9429
2 24834   2.4721  88.7751 0002867 256.9049 204.9633  1.00265824 20437
ORBVIEW 2 (SEASTAR)
1 24883U 97037A   03013.87600515  .00000660  00000-0  14989-3 0   111
2 24883  98.2216 115.1729 0001346 350.0285  10.0887 14.59142981290142
HOT BIRD 3
1 24931U 97049A   03013.80550721  .00000107  00000-0  10000-3 0  4204
2 24931   0.0673 233.2523 0010443 100.7649  81.7511  1.00274844 19728
METEOSAT 7
1 24932U 97049B   03013.20133103  .00000015  00000-0  00000+0 0  2267
2 24932   0.1322  40.9545 0001236 223.2714 280.4269  1.00272822 19656
MAQSAT H
1 25023U 97066A   03014.53048565 -.00000031  00000-0 -15611-5 0  7379
2 25023   7.6804  81.0304 6496059  98.5146 334.5006  3.09236578 58701
MAQSAT B
1 25024U 97066B   03012.22488929  .00000048  00000-0  41142-3 0  6591
2 25024   7.7339  78.5003 6504597 103.0276 332.0376  3.08735532 58689
TEAMSAT
1 25025U 97066C   03014.28896204  .00000039  00000-0  60610-3 0  6567
2 25025   7.7194  83.7196 6507351  92.8875 337.4394  3.07892472 58574
ASTRA 1G
1 25071U 97076A   03013.00000000  .00000139  00000-0  10000-3 0  3879
2 25071   0.0122 319.8851 0002995  65.1991 106.1633  1.00273184 18772
INMARSAT 3-F5
1 25153U 98006B   03013.96737848  .00000161  00000-0  10000-3 0  8315
2 25153   0.4464 359.2947 0003345 281.3118 205.6541  1.00275505 18146
HOT BIRD 4
1 25237U 98013A   03013.80550721  .00000107  00000-0  10000-3 0  3250
2 25237   0.0242 116.4838 0007929 193.6371 105.7449  1.00276095 18185
NOAA 15
1 25338U 98030A   03013.90977793  .00000187  00000-0  99362-4 0  9684
2 25338  98.5510  37.0256 0011379  63.1651 297.0692 14.24226333242729
RESURS O1-N4
1 25394U 98043A   03014.50046666  .00000187  00000-0  10083-3 0  4231
2 25394  98.6364  93.0662 0001178 175.4509 184.6682 14.23863466234541
TMSAT
1 25396U 98043C   03014.25082534 -.00000043  00000-0  00000+0 0  8138
2 25396  98.6332  92.0441 0002414 203.9362 156.1711 14.23497681234505
TECHSAT 1B
1 25397U 98043D   03012.92293863 +.00000082 +00000-0 +55906-4 0 01113
2 25397 098.6280 089.6651 0000468 225.6066 134.5072 14.22950128234286
ASTRA 2A
1 25462U 98050A   03013.00000000  .00000169  00000-0  00000+0 0  5281
2 25462   0.0385 308.7109 0004824 280.8620 270.7162  1.00272094 16073
EUTELSAT W2
1 25491U 98056A   03012.86124057  .00000123  00000-0  00000+0 0  5618
2 25491   0.0508 109.3812 0003700 183.4770 145.1010  1.00274064 15686
HOT BIRD 5
1 25495U 98057A   03011.93490742 +.00000173 +00000-0 +00000-0 0 04926
2 25495 000.0624 143.7977 0004180 135.8889 201.0357 01.00276078015647
SEDSAT 1
1 25509U 98061B   03014.12295240  .00001691  00000-0  32964-3 0  7563
2 25509  31.4341 353.3286 0357756 353.3450   6.2569 14.27368538220240
PAN SAT
1 25520U 98064B   03014.35368983  .00003960  00000-0  20399-3 0  6298
2 25520  28.4586  98.3779 0005347 329.9011  30.1302 15.13692147232247
ISS (ZARYA)
1 25544U 98067A   03014.53676537  .00028912  00000-0  36827-3 0  5818
2 25544  51.6348  72.0760 0005468  33.8789  69.3603 15.59072942237038
ORSTED
1 25635U 99008B   03014.06970917  .00000761  00000-0  19953-3 0  8065
2 25635  96.4478   8.8097 0146852  81.6180 280.1637 14.44767249204813
SUNSAT
1 25636U 99008C   03014.21284942  .00000376  00000-0  10563-3 0  6562
2 25636  96.4497   7.6478 0150651  87.2748 274.5683 14.42917197204713
INSAT 2E
1 25666U 99016A   03011.61610031 -.00000148  00000-0  10000-3 0  6167
2 25666   0.0637  83.9060 0009190 268.7098  62.8121  1.00270238 13960
UOSAT 12
1 25693U 99021A   03014.46217210  .00000781  00000-0  13170-3 0  6108
2 25693  64.5590 118.2344 0017124 317.1717  42.8051 14.76346510201078
MEGSAT
1 25722U 99022B   03013.62768871  .00049180  00000-0  97458-3 0  1745
2 25722  48.4224 178.6682 0008580  13.3418 346.8378 15.46433336205265
FENGYUN 1C
1 25730U 99025A   03014.57016508 -.00000028  00000-0  76713-5 0  7428
2 25730  98.6367  40.2830 0015348 101.6966 258.5929 14.11729198189691
KITSAT 3
1 25756U 99029A   03012.57268013  .00000772  00000-0  20281-3 0   726
2 25756  98.4263 127.1866 0015034 129.5539 230.7015 14.51856034192408
TUBSAT
1 25757U 99029B   03014.46514070  .00000324  00000-0  94281-4 0  5577
2 25757  98.4223 127.4444 0015163 133.3800 226.8660 14.50531463192606
IRS P4 (OCEANSAT 1)
1 25758U 99029C   03014.55292097  .00000795  00000-0  21280-3 0   935
2 25758  98.2896 113.2349 0000766 123.0735 237.0533 14.50858492192746
ASTRA 1H
1 25785U 99033A   03013.00000000  .00000139  00000-0  10000-3 0  3685
2 25785   0.0122 319.8851 0002995  65.1991 106.1621  1.00273184 13136
QUIKSCAT
1 25789U 99034A   03014.56778361  .00000117  00000-0  66486-4 0  7156
2 25789  98.6307 202.1118 0000192  12.9115 347.2069 14.26571427185994
TERRA
1 25994U 99068A   03014.22259633  .00000901  00000-0  21020-3 0  6019
2 25994  98.2048  90.9817 0001172  63.7076 296.4243 14.57088768163527
JAWSAT
1 26061U 00004A   03014.22823611  .00000612  00000-0  22136-3 0  7402
2 26061 100.2118  64.7293 0035346  20.0403 340.2160 14.37779107155453
OPAL
1 26063U 00004C   03014.14707745  .00000182  00000-0  83227-4 0  6976
2 26063 100.2174  62.2912 0037465  26.5243 333.7842 14.35464752155308
FALCONSAT
1 26064U 00004D   03014.17942162  .00000158  00000-0  75316-4 0  6966
2 26064 100.2196  61.8657 0038660  28.2623 332.0642 14.35064542155272
ASUSAT
1 26065U 00004E   03014.52281753  .00000208  00000-0  92124-4 0  7084
2 26065 100.2167  62.8765 0037656  27.1673 333.1468 14.35491016155356
PICOSAT 1&2 (TETHERED)
1 26080U 00004H   03014.09056240  .00000721  00000-0  25116-3 0  5370
2 26080 100.2149  66.7873 0033217  21.4227 338.8455 14.39049935153851
PICOSAT 3
1 26091U 00004J   03013.64178005  .00001271  00000-0  41152-3 0  7434
2 26091 100.2068  66.3592 0032435  15.2473 344.9694 14.40989898153094
PICOSAT 4
1 26092U 00004K   03013.18705170  .00000777  00000-0  26959-3 0  6553
2 26092 100.2021  63.3903 0036714  20.1435 340.1191 14.38840424152967
PICOSAT 5
1 26093U 00004L   03014.16565181  .00002340  00000-0  72418-3 0  5322
2 26093 100.2010  68.0135 0033988  11.6637 348.5317 14.42125644153478
PICOSAT 6
1 26094U 00004M   03013.32172735  .00000547  00000-0  19789-3 0  5070
2 26094 100.2090  63.4353 0035982  23.3618 336.9221 14.38282685152640
INSAT 3B
1 26108U 00016B   03011.64967025 -.00000147  00000-0  10000-3 0  3775
2 26108   0.0538  99.4060 0010707 253.8041  74.3065  1.00270011 10302
GOES 11
1 26352U 00022A   03012.52750551 -.00000022  00000-0  10000-3 0  9717
2 26352   0.0555 113.6172 0004459 163.0041 272.5887  1.00261359  9862
EUTELSAT W4
1 26369U 00028A   03013.79642362  .00000175  00000-0  00000+0 0  3370
2 26369   0.0445  33.8375 0004435 200.8022 201.0567  1.00275710  9698
FENGYUN 2B
1 26382U 00032A   03014.23202736 -.00000308  00000-0  00000+0 0  7684
2 26382   0.6518 287.2693 0000511 162.2292 211.7565  1.00265856  9358
SNAP 1
1 26386U 00033C   03013.88740948  .00001735  00000-0  34428-3 0  8029
2 26386  98.2494 333.5700 0011939 334.4229  25.6381 14.63455357135719
CHAMP
1 26405U 00039B   03014.37152468  .00014152  00000-0  21846-3 0  8258
2 26405  87.2553 163.8138 0004809  64.4476 295.7254 15.53973480141264
EUTELSAT W1
1 26487U 00052A   03013.00216436  .00000087  00000-0  10000-3 0  3413
2 26487   0.0486 102.7976 0003860 182.0647 197.9575  1.00274920  8651
ASTRA 2B
1 26494U 00054A   03013.00000000  .00000169  00000-0  00000+0 0  2517
2 26494   0.0178 354.5658 0005000 302.8402 202.8287  1.00276704  8557
NOAA 16
1 26536U 00055A   03013.51099553  .00000083  00000-0  69906-4 0  1634
2 26536  98.8970 322.0708 0011426  49.9787 310.2393 14.11880840119068
SAUDISAT 1A
1 26545U 00057A   03013.03095324  .00002392  00000-0  33519-3 0  3979
2 26545  64.5574 144.2130 0054407 244.4982 115.0534 14.78867843123813
UNISAT
1 26547U 00057C   03013.03545511  .00003691  00000-0  49507-3 0  4168
2 26547  64.5566 146.5696 0061490 247.0396 112.4251 14.79559707123787
SAUDISAT 1B
1 26549U 00057E   03013.51451711  .00001996  00000-0  28891-3 0  6656
2 26549  64.5493 146.6529 0058867 244.8093 114.6892 14.77808713123818
AMSAT OSCAR 40
1 26609U 00072B   03014.42373129  .00000025  00000-0  10000-3 0  3042
2 26609   7.9543  70.5875 7935115 133.0894 327.3710  1.25596681 10146
GOES 12
1 26871U 01031A   03014.45037608 -.00000069  00000-0  10000-3 0  7707
2 26871   0.4651  97.7686 0000765  42.5770  30.0226  1.00278546  5481
STARSHINE 3
1 26929U 01043A   03014.55018648  .01076292  74517-3  96942-3 0  6726
2 26929  67.0211  80.9237 0007977 329.8942  30.1792 16.12530047 73262
PICOSAT 9
1 26930U 01043B   03014.22371013  .00000137  00000-0  85525-4 0  3742
2 26930  66.9980 342.6566 0005892 219.5073 140.5599 14.29728326 67339
PCSAT
1 26931U 01043C   03014.18294084  .00000297  00000-0  14940-3 0  3761
2 26931  67.0483 346.7106 0005301 258.3043 101.7463 14.29093020 67298
SAPPHIRE
1 26932U 01043D   03014.23545046  .00000146  00000-0  89758-4 0  3713
2 26932  67.0548 346.2892 0006313 238.6176 121.4307 14.29277912 67324
ENVISAT
1 27386U 02009A   03014.47519830  .00000216  00000-0  96213-4 0  8434
2 27386  98.5493  83.5321 0000879  98.6867 261.4417 14.32254806 45724
IDEFIX/ARIANE 42P
1 27422U 02021B   03014.21715133  .00000290  00000-0  13494-3 0  2081
2 27422  98.6998  93.5737 0011817 251.0493 108.9407 14.27948459 36410
NOAA 17
1 27453U 02032A   03013.92364806  .00000311  00000-0  15670-3 0  2678
2 27453  98.7618  85.3117 0012651  99.7020 260.5586 14.23269739 28894
